Date,TemperatureHighF,TemperatureAvgF,TemperatureLowF,DewpointHighF,DewpointAvgF,DewpointLowF,HumidityHigh,HumidityAvg,HumidityLow,PressureMaxIn,PressureMinIn,WindSpeedMaxMPH,WindSpeedAvgMPH,GustSpeedMaxMPH,PrecipitationSumIn
2013-1-1,36,28,18,27,19,9,81,68,58,29.90,29.72,16,2,23,0.05
2013-1-2,30,19,10,19,11,3,85,71,59,30.08,29.88,9,1,16,0.00
2013-1-3,25,14,4,13,4,-4,83,64,36,30.12,29.98,6,1,12,0.00
2013-1-4,38,26,15,26,20,11,90,78,61,29.98,29.80,8,1,20,0.09
2013-1-5,42,30,22,28,22,18,87,75,52,30.23,29.84,9,1,20,0.11
2013-1-6,43,31,23,31,26,19,92,82,64,30.20,29.91,8,1,13,0.08
2013-1-7,40,30,20,30,24,17,92,79,56,30.37,29.94,7,1,16,0.01
2013-1-8,45,32,19,32,27,17,93,80,59,30.34,30.25,9,1,20,0.00
2013-1-9,44,35,24,36,30,23,94,82,60,30.37,29.98,7,1,15,0.00
2013-1-10,46,39,30,31,28,25,83,65,49,30.50,30.04,12,2,25,0.00
2013-1-11,37,32,25,34,28,22,96,86,72,30.50,30.18,2,0,4,0.11
2013-1-12,41,38,35,41,37,34,100,97,96,30.20,30.09,1,0,4,0.07
2013-1-13,51,45,39,51,44,38,99,97,94,30.13,29.96,6,1,10,0.09
2013-1-14,60,49,39,53,43,31,96,81,51,30.22,29.84,7,2,16,0.00
2013-1-15,40,36,32,32,28,26,85,74,62,30.29,30.18,6,0,10,0.00
2013-1-16,33,32,29,30,29,25,94,89,73,30.21,29.79,2,0,4,0.01
2013-1-17,41,33,26,35,28,19,95,82,62,30.06,29.81,8,1,18,0.31
2013-1-18,29,22,16,20,8,1,72,54,37,30.42,30.01,7,2,14,0.01
2013-1-19,46,36,19,34,25,9,79,65,50,30.35,29.86,10,3,18,0.09
2013-1-20,52,40,27,35,28,13,79,63,42,29.89,29.51,13,3,30,0.00
2013-1-21,27,23,19,20,14,8,91,67,48,30.06,29.76,7,1,17,0.00
2013-1-22,24,18,9,19,9,1,92,68,41,30.06,29.73,9,1,20,0.00
2013-1-23,16,10,5,3,-2,-6,76,59,43,30.12,30.04,9,1,21,0.00
2013-1-24,20,10,1,1,-4,-7,77,54,36,30.22,30.06,11,2,20,0.00
2013-1-25,23,15,6,12,0,-6,84,51,33,30.30,30.03,6,1,17,0.00
2013-1-26,25,16,7,12,6,-2,89,66,40,30.23,29.98,9,2,17,0.00
2013-1-27,30,20,11,10,6,3,74,56,36,30.45,30.22,8,1,18,0.00
2013-1-28,30,23,16,24,15,6,92,72,44,30.43,29.98,4,0,6,0.00
2013-1-29,33,29,25,31,27,23,94,93,92,30.17,29.98,2,0,4,0.14
2013-1-30,59,47,32,56,45,30,97,94,90,30.12,29.42,14,4,24,0.20
2013-1-31,59,47,30,57,39,19,93,75,51,29.56,28.94,22,5,38,0.62
2013-2-1,34,27,21,22,14,8,71,56,41,30.06,29.56,11,2,18,0.00
2013-2-2,30,23,15,16,11,6,70,59,47,30.22,30.02,10,1,16,0.00
2013-2-3,27,24,19,22,20,16,89,84,71,30.03,29.70,4,0,10,0.00
2013-2-4,30,22,17,20,14,10,89,71,47,29.92,29.70,10,2,26,0.00
2013-2-5,26,23,19,21,17,12,89,75,68,30.00,29.90,4,0,9,0.00
2013-2-6,40,29,22,28,20,9,92,71,48,30.27,29.89,9,1,17,0.03
2013-2-7,31,24,17,13,9,7,77,54,38,30.50,30.27,5,0,8,0.00
2013-2-8,32,26,17,29,23,13,93,86,64,30.46,29.54,7,1,12,0.01
2013-2-9,23,18,13,21,16,10,96,91,87,30.18,29.52,0,0,0,0.00
2013-2-10,38,21,5,26,12,2,88,70,31,30.37,30.18,0,0,0,0.23
2013-2-11,43,32,18,42,29,10,94,87,72,30.33,29.58,0,0,0,0.73
2013-2-12,44,37,30,38,30,26,94,78,59,29.86,29.59,0,0,0,0.09
2013-2-13,42,32,23,29,25,20,96,76,57,29.84,29.66,0,0,0,0.00
2013-2-14,43,35,27,27,25,22,84,69,46,29.97,29.68,0,0,0,0.00
2013-2-15,50,37,24,37,30,21,92,79,59,29.97,29.88,0,0,0,0.00
2013-2-16,37,33,29,32,28,20,92,82,65,29.92,29.66,0,0,0,0.02
2013-2-17,29,21,16,22,12,3,89,71,47,29.68,29.38,0,0,0,0.00
2013-2-18,31,21,13,8,5,2,63,50,33,30.15,29.68,0,0,0,0.02
2013-2-19,48,34,18,40,25,6,93,72,53,30.16,29.56,0,0,0,0.32
2013-2-20,38,31,24,36,21,13,93,69,46,29.76,29.51,0,0,0,0.01
2013-2-21,34,27,22,18,16,14,75,64,50,30.19,29.74,0,0,0,0.00
2013-2-22,40,31,21,26,22,17,85,71,50,30.35,30.19,0,0,0,0.00
2013-2-23,37,33,28,31,28,23,92,84,77,30.30,29.86,0,0,0,0.04
2013-2-24,34,32,30,33,31,29,94,93,92,29.86,29.66,0,0,0,0.40
2013-2-25,39,33,27,34,30,25,94,90,79,30.22,29.86,0,0,0,0.27
2013-2-26,44,36,31,36,30,28,93,80,59,30.31,30.11,0,0,0,0.05
2013-2-27,40,37,34,39,35,30,94,93,85,30.12,29.54,0,0,0,1.34
2013-2-28,44,36,32,40,34,30,94,91,83,29.61,29.50,0,0,0,0.00
2013-3-1,43,37,31,35,31,28,93,80,65,29.65,29.50,0,0,0,0.00
2013-3-2,41,36,32,31,29,27,82,75,63,29.65,29.59,0,0,0,0.00
2013-3-3,42,34,31,32,28,26,89,79,65,29.61,29.53,0,0,0,0.00
2013-3-4,41,34,27,28,25,21,84,72,58,29.72,29.56,0,0,0,0.01
2013-3-5,46,36,29,33,28,24,93,74,57,30.04,29.72,0,0,0,0.00
2013-3-6,39,35,33,34,32,30,92,88,79,30.05,30.00,0,0,0,0.09
2013-3-7,34,31,29,31,29,27,92,90,84,30.01,29.95,0,0,0,0.14
2013-3-8,36,31,28,32,28,26,93,91,79,30.12,29.90,0,0,0,0.00
2013-3-9,48,36,26,33,27,23,90,70,41,30.32,30.11,0,0,0,0.90
2013-3-10,45,35,24,34,29,22,92,81,64,30.38,30.27,0,0,0,0.09
2013-3-11,53,41,34,42,36,30,90,82,63,30.30,30.12,0,0,0,0.00
2013-3-12,54,48,40,50,45,38,93,91,86,30.12,29.69,0,0,0,0.43
2013-3-13,52,42,31,47,33,24,92,71,44,29.76,29.67,0,0,0,0.00
2013-3-14,36,30,22,26,18,9,81,62,46,29.82,29.68,0,0,0,0.00
2013-3-15,40,30,19,29,17,10,90,61,32,29.85,29.62,0,0,0,0.00
2013-3-16,40,33,27,29,19,12,90,58,35,29.84,29.66,0,0,0,0.00
2013-3-17,39,30,23,20,15,8,80,54,30,30.28,29.83,0,0,0,0.00
2013-3-18,38,28,16,25,12,4,85,53,28,30.43,30.19,0,0,0,0.00
2013-3-19,35,31,28,32,28,24,92,91,85,30.19,29.58,0,0,0,0.33
2013-3-20,38,30,23,26,22,20,92,74,51,29.79,29.67,0,0,0,0.24
2013-3-21,38,29,24,28,23,19,89,78,56,29.80,29.59,0,0,0,0.10
2013-3-22,40,32,24,26,22,18,88,67,47,29.73,29.59,0,0,0,0.23
2013-3-23,43,34,26,26,23,21,83,63,44,29.78,29.63,0,0,0,0.05
2013-3-24,48,37,29,30,25,21,79,63,44,29.80,29.69,0,0,0,0.00
2013-3-25,46,36,30,34,29,25,83,76,57,29.74,29.46,0,0,0,0.00
2013-3-26,48,40,34,32,28,24,82,64,43,29.76,29.50,0,0,0,0.00
2013-3-27,55,41,28,32,27,22,81,59,35,29.84,29.72,0,0,0,0.00
2013-3-28,49,42,35,36,34,32,89,73,51,29.99,29.84,0,0,0,0.01
2013-3-29,58,46,34,38,33,30,87,64,37,30.02,29.93,0,0,0,0.00
2013-3-30,58,46,34,35,28,20,82,53,26,30.07,29.97,0,0,0,0.00
2013-3-31,61,45,31,40,30,24,87,59,29,30.09,29.68,0,0,0,0.05
2013-4-1,62,46,33,47,38,17,96,74,47,29.77,29.47,0,0,0,0.11
2013-4-2,42,33,25,24,18,13,75,53,36,29.93,29.77,0,0,0,0.00
2013-4-3,46,36,29,20,18,14,63,48,31,30.14,29.92,0,0,0,0.00
2013-4-4,55,41,27,29,21,16,71,49,24,30.28,30.03,0,0,0,0.00
2013-4-5,61,45,36,35,29,23,79,57,24,30.03,29.60,0,0,0,0.00
2013-4-6,46,38,30,28,16,7,70,43,21,30.30,29.85,0,0,0,0.00
2013-4-7,55,41,26,40,30,16,83,65,37,30.30,29.98,0,0,0,0.00
2013-4-8,66,53,41,44,41,38,90,68,40,30.05,29.93,0,0,0,0.00
2013-4-9,74,58,46,56,46,41,93,67,41,30.05,29.82,0,0,0,0.00
2013-4-10,66,54,44,52,46,41,91,78,60,29.96,29.80,0,0,0,0.16
2013-4-11,55,47,40,45,40,28,93,76,46,30.11,29.79,0,0,0,0.04
2013-4-12,40,37,36,35,34,32,92,87,77,30.12,29.75,0,0,0,0.50
2013-4-13,54,44,34,42,36,32,92,78,55,29.90,29.71,0,0,0,0.03
2013-4-14,53,44,36,40,34,28,87,69,43,30.19,29.89,0,0,0,0.00
2013-4-15,59,45,32,38,33,28,86,66,42,30.37,30.19,0,0,0,0.00
2013-4-16,60,50,35,50,42,31,90,76,59,30.37,30.05,0,0,0,0.00
2013-4-17,68,58,46,51,40,33,86,56,29,30.30,30.04,0,0,0,0.00
2013-4-18,64,51,37,44,36,31,85,60,37,30.38,30.11,0,0,0,0.00
2013-4-19,73,61,50,63,56,44,93,83,69,30.11,29.62,0,0,0,0.00
2013-4-20,64,53,42,59,42,27,89,68,44,30.19,29.57,0,0,0,0.59
2013-4-21,55,43,32,33,26,22,77,52,30,30.65,30.19,0,0,0,0.00
2013-4-22,54,42,31,38,32,27,90,68,40,30.71,30.55,0,0,0,0.00
2013-4-23,40,39,37,38,35,32,90,87,77,30.55,30.08,0,0,0,0.02
2013-4-24,74,54,39,54,44,37,91,72,32,30.08,29.77,0,0,0,0.01
2013-4-25,64,54,44,49,39,27,86,59,29,30.24,29.81,0,0,0,0.02
2013-4-26,65,50,39,42,37,30,82,62,39,30.39,30.24,0,0,0,0.00
2013-4-27,67,50,35,44,37,32,89,65,35,30.38,30.25,0,0,0,0.00
2013-4-28,70,54,37,43,37,29,88,57,32,30.31,30.18,0,0,0,0.00
2013-4-29,69,56,44,48,39,26,86,56,31,30.24,30.15,0,0,0,0.00
2013-4-30,71,57,42,36,32,27,74,43,21,30.33,30.21,0,0,0,0.00
2013-5-1,72,56,37,44,37,31,83,53,30,30.43,30.33,0,0,0,0.00
2013-5-2,79,57,41,49,42,37,87,62,30,30.44,30.29,0,0,0,0.00
2013-5-3,63,51,41,48,41,36,84,70,53,30.47,30.34,0,0,0,0.00
2013-5-4,65,50,38,48,38,28,88,66,31,30.34,30.26,0,0,0,0.00
2013-5-5,65,49,36,47,40,32,89,71,47,30.30,30.20,0,0,0,0.00
2013-5-6,75,55,36,53,44,33,89,70,40,30.26,30.10,0,0,0,0.00
2013-5-7,79,62,43,61,52,39,90,72,49,30.15,30.05,0,0,0,0.00
2013-5-8,72,62,53,64,56,49,89,83,70,30.15,30.00,0,0,0,0.06
2013-5-9,69,60,56,61,56,52,89,86,74,30.00,29.84,0,0,0,0.26
2013-5-10,80,66,52,64,56,49,90,71,46,29.92,29.85,0,0,0,0.01
2013-5-11,69,62,57,61,56,52,87,82,75,29.88,29.66,0,0,0,0.07
2013-5-12,72,60,48,59,51,35,87,73,53,29.78,29.53,0,0,0,0.07
2013-5-13,60,48,37,41,34,31,82,59,37,30.01,29.78,0,0,0,0.00
2013-5-14,60,49,37,38,34,31,81,60,38,30.02,29.95,0,0,0,0.00
2013-5-15,66,51,36,50,41,31,84,70,40,30.03,29.65,0,0,0,0.04
2013-5-16,82,65,49,53,47,42,87,57,27,29.76,29.61,0,0,0,0.00
2013-5-17,71,59,48,50,45,41,80,60,40,30.18,29.76,0,0,0,0.00
2013-5-18,72,58,45,51,45,40,86,64,38,30.32,30.18,0,0,0,0.00
2013-5-19,72,57,46,58,49,41,86,76,53,30.31,30.18,0,0,0,0.09
2013-5-20,81,67,54,69,60,50,88,79,63,30.18,29.88,0,0,0,0.02
2013-5-21,89,66,51,73,59,46,87,78,54,29.95,29.78,0,0,0,0.10
2013-5-22,75,58,49,67,53,45,90,83,75,30.01,29.83,0,0,0,0.11
2013-5-23,74,65,55,66,59,50,87,82,76,29.89,29.76,0,0,0,0.22
2013-5-24,69,62,48,62,56,43,86,83,77,29.78,29.61,0,0,0,0.35
2013-5-25,50,46,39,46,42,35,90,85,83,29.78,29.68,0,0,0,0.43
2013-5-26,59,47,38,47,40,34,90,76,56,30.09,29.70,0,0,0,0.03
2013-5-27,71,56,38,49,42,33,84,62,34,30.14,30.05,0,0,0,0.00
2013-5-28,77,60,43,56,47,37,82,64,35,30.20,30.12,0,0,0,0.00
2013-5-29,73,63,56,64,57,50,84,80,74,30.15,29.95,0,0,0,1.04
2013-5-30,86,73,60,74,64,55,83,75,63,30.06,29.97,0,0,0,0.17
2013-5-31,93,76,64,76,65,58,80,70,48,30.06,29.94,0,0,0,0.00
2013-6-3,68,64,61,58,54,50,71,70,67,29.80,29.77,0,0,0,0.51
2013-6-4,70,59,49,55,47,40,73,66,53,30.06,29.79,0,0,0,0.00
2013-6-5,74,62,49,58,49,41,74,65,44,30.16,30.06,0,0,0,0.00
2013-6-6,74,63,51,59,51,43,74,65,50,30.16,30.06,0,0,0,0.01
2013-6-7,57,55,53,50,47,46,77,75,71,30.06,29.80,0,0,0,2.73
2013-6-8,73,59,53,62,52,46,79,77,70,29.79,29.59,0,0,0,0.97
2013-6-9,66,63,59,56,53,50,71,70,69,30.13,30.09,0,0,0,0.00
2013-6-10,68,60,57,57,51,48,73,71,67,30.16,29.96,0,0,0,0.80
2013-6-11,63,58,56,53,49,48,74,72,67,29.96,29.53,0,0,0,1.48
2013-6-12,69,61,56,58,51,47,72,70,67,29.78,29.53,0,0,0,0.00
2013-6-13,61,55,51,50,44,40,69,66,64,29.79,29.62,0,0,0,1.02
2013-6-14,68,58,51,58,47,40,70,68,64,29.74,29.59,0,0,0,1.15
2013-6-15,78,64,53,60,50,41,70,60,42,29.91,29.75,0,0,0,0.00
2013-6-16,73,64,51,61,52,39,70,66,59,29.92,29.69,0,0,0,0.00
2013-6-17,86,69,57,69,54,44,68,60,49,29.87,29.74,0,0,0,0.58
2013-6-18,80,63,58,69,50,45,69,62,59,29.90,29.82,0,0,0,1.44
2013-6-19,78,64,54,63,50,41,71,63,50,30.11,29.86,0,0,0,0.09
2013-6-20,80,65,50,62,50,36,71,58,42,30.23,30.11,0,0,0,0.00
2013-6-21,83,69,55,70,57,41,70,64,58,30.23,30.15,0,0,0,0.00
2013-6-22,85,71,60,69,58,48,69,65,52,30.19,30.08,0,0,0,0.00
2013-6-23,89,75,62,76,62,49,69,65,59,30.13,29.97,0,0,0,0.00
2013-6-24,93,79,68,79,63,50,68,59,51,30.00,29.84,0,0,0,0.05
2013-6-25,91,77,66,77,60,46,67,57,47,29.90,29.70,0,0,0,0.00
2013-6-26,88,75,68,74,57,45,66,54,44,29.81,29.69,0,0,0,0.00
2013-6-27,70,66,64,47,42,38,47,42,38,29.81,29.70,0,0,0,0.15
2013-6-28,82,71,63,70,48,37,67,46,32,29.71,29.45,0,0,0,0.31
2013-6-29,82,74,70,70,49,34,66,43,26,29.69,29.47,0,0,0,0.00
2013-6-30,84,75,70,70,47,31,63,38,23,29.90,29.68,0,0,0,0.00
2013-7-1,81,74,71,60,32,18,50,23,11,30.04,29.90,0,0,0,0.04
2013-7-2,82,76,70,61,34,8,50,26,8,30.14,30.04,0,0,0,0.00
2013-7-3,88,75,65,74,36,-9,63,29,4,30.17,30.10,0,0,0,0.00
2013-7-4,92,81,71,78,34,-14,64,31,3,30.17,30.06,0,0,0,0.00
2013-7-5,94,82,72,79,38,-13,63,32,3,30.13,30.00,0,0,0,0.00
2013-7-6,93,81,72,78,34,-13,62,31,3,30.04,29.94,0,0,0,0.00
2013-7-7,94,78,70,78,20,-15,62,21,3,29.99,29.87,0,0,0,0.03
2013-7-8,92,78,69,77,22,-16,63,24,3,30.01,29.87,0,0,0,0.00
2013-7-9,75,70,67,13,-12,-17,10,4,3,30.06,29.99,0,0,0,0.01
2013-7-10,86,74,68,66,4,-16,52,12,3,30.03,29.76,0,0,0,0.09
2013-7-11,80,74,70,46,-1,-14,30,7,3,29.89,29.75,0,0,0,0.19
2013-7-12,80,70,64,66,25,-18,62,30,3,30.15,29.88,0,0,0,0.00
2013-7-13,75,69,64,4,-15,-18,9,3,3,30.27,30.15,0,0,0,0.11
2013-7-14,92,78,71,77,18,-14,62,20,3,30.26,30.15,0,0,0,0.00
2013-7-15,92,80,72,76,13,-13,60,16,3,30.17,30.06,0,0,0,0.00
2013-7-16,96,80,69,80,27,-15,62,26,3,30.13,30.05,0,0,0,0.00
2013-7-17,97,82,71,80,27,-14,61,26,3,30.14,29.97,0,0,0,0.00
2013-7-18,99,83,73,81,24,-13,60,23,3,29.98,29.89,0,0,0,0.00
2013-7-19,98,84,74,81,24,-12,60,22,3,29.91,29.69,0,0,0,0.00
2013-7-20,94,82,72,77,17,-14,60,17,3,29.78,29.61,0,0,0,0.00
2013-7-21,89,76,68,73,22,-16,61,25,3,29.94,29.77,0,0,0,0.00
2013-7-22,89,74,66,73,10,-18,60,16,3,29.97,29.84,0,0,0,0.00
2013-7-23,86,74,70,56,-10,-15,39,4,3,29.83,29.49,0,0,0,0.79
2013-7-24,88,75,66,70,18,-16,61,23,3,29.90,29.55,0,0,0,0.00
2013-7-25,66,60,58,44,0,-22,54,17,3,30.06,29.90,0,0,0,0.69
2013-7-26,72,64,59,-14,-19,-22,3,3,3,30.02,29.92,0,0,0,0.48
2013-7-27,86,70,59,71,15,-22,61,23,3,30.04,29.95,0,0,0,0.00
2013-7-28,89,73,64,73,4,-19,59,13,3,29.98,29.91,0,0,0,0.00
2013-7-29,87,74,65,65,0,-18,52,10,3,30.01,29.92,0,0,0,0.57
2013-7-30,87,70,59,70,16,-22,60,24,3,30.07,29.99,0,0,0,0.00
2013-7-31,86,70,60,70,11,-22,60,21,3,30.10,30.00,0,0,0,0.00
2013-8-1,81,68,60,65,3,-21,59,16,3,30.02,29.84,0,0,0,0.00
2013-8-2,87,72,65,70,11,-18,60,20,3,29.85,29.76,0,0,0,0.16
2013-8-3,80,69,62,63,0,-20,59,13,3,29.84,29.75,0,0,0,0.00
2013-8-4,85,67,56,68,4,-24,59,18,3,29.87,29.74,0,0,0,0.04
2013-8-5,82,64,53,60,18,-26,62,29,3,30.02,29.86,0,0,0,0.00
2013-8-6,84,65,50,64,18,-28,60,28,3,30.12,30.01,0,0,0,0.00
2013-8-7,85,68,57,66,17,-24,60,25,3,30.15,30.07,0,0,0,0.00
2013-8-8,78,70,64,-9,-14,-19,3,3,3,30.10,29.98,0,0,0,0.12
2013-8-9,75,72,71,-11,-13,-14,3,3,3,30.00,29.72,0,0,0,1.44
2013-8-10,86,72,59,70,20,-18,61,26,3,29.98,29.76,0,0,0,0.00
2013-8-11,84,66,54,67,11,-26,62,23,3,30.05,29.97,0,0,0,0.00
2013-8-12,87,70,59,70,12,-22,60,22,3,30.00,29.88,0,0,0,0.00
2013-8-13,74,67,62,35,-16,-20,24,3,3,29.90,29.65,0,0,0,0.00
2013-8-14,78,65,56,62,20,-24,61,29,3,29.94,29.64,0,0,0,0.00
2013-8-15,83,64,52,65,12,-27,61,25,3,30.09,29.94,0,0,0,0.00
2013-8-16,86,66,53,66,10,-26,60,22,3,30.17,30.08,0,0,0,0.00
2013-8-17,84,67,56,68,7,-24,59,19,3,30.25,30.17,0,0,0,0.00
2013-8-18,82,67,59,66,-2,-22,59,12,3,30.24,30.06,0,0,0,0.00
2013-8-19,84,68,57,68,8,-23,60,18,3,30.06,29.93,0,0,0,0.00
2013-8-20,90,73,62,72,13,-20,59,20,3,30.06,29.95,0,0,0,0.00
2013-8-21,93,74,62,74,12,-20,59,19,3,30.11,30.00,0,0,0,0.00
2013-8-22,86,73,63,68,-4,-19,55,8,3,30.01,29.80,0,0,0,0.00
2013-8-23,84,71,60,67,16,-20,59,24,3,30.08,29.79,0,0,0,0.00
2013-8-24,84,65,52,60,17,-26,60,25,3,30.31,30.09,0,0,0,0.00
2013-8-25,88,68,54,67,18,-26,61,25,3,30.33,30.16,0,0,0,0.00
2013-8-26,80,69,62,63,1,-20,57,12,3,30.17,29.85,0,0,0,0.00
2013-8-27,86,72,66,59,-8,-17,42,5,3,29.86,29.79,0,0,0,0.20
2013-8-28,90,73,62,74,10,-20,59,19,3,29.92,29.81,0,0,0,0.00
2013-8-29,67,64,59,-16,-18,-22,3,3,3,30.04,29.91,0,0,0,0.00
2013-8-30,85,69,60,69,-3,-21,59,11,3,30.01,29.80,0,0,0,0.00
2013-8-31,78,73,67,-9,-12,-16,3,3,3,29.81,29.76,0,0,0,0.00
2013-9-1,76,72,69,-10,-13,-15,3,3,3,29.84,29.75,0,0,0,0.37
2013-9-2,80,74,71,-8,-12,-14,3,3,3,29.83,29.67,0,0,0,0.13
2013-9-3,78,71,61,-4,-14,-21,4,3,3,29.78,29.66,0,0,0,0.03
2013-9-4,84,67,57,67,11,-24,61,23,3,29.90,29.77,0,0,0,0.00
2013-9-5,70,61,51,50,0,-28,56,16,3,30.11,29.83,0,0,0,0.06
2013-9-6,74,56,43,53,5,-33,62,23,3,30.22,30.07,0,0,0,0.00
2013-9-7,84,62,47,61,9,-30,60,23,3,30.08,29.83,0,0,0,0.00
2013-9-8,80,64,49,64,17,-23,62,30,3,30.06,29.72,0,0,0,0.00
2013-9-9,72,56,42,53,13,-34,62,29,3,30.21,30.06,0,0,0,0.00
2013-9-10,74,65,53,-12,-18,-26,3,3,3,30.14,30.00,0,0,0,0.03
2013-9-11,97,79,69,78,12,-15,59,16,3,30.05,29.90,0,0,0,0.00
2013-9-12,88,76,69,66,1,-16,48,9,3,29.94,29.65,0,0,0,0.54
2013-9-13,81,69,58,62,-8,-22,55,7,3,29.72,29.53,0,0,0,0.18
2013-9-14,67,59,52,48,-7,-27,50,11,3,30.03,29.72,0,0,0,0.01
2013-9-15,74,58,48,58,2,-30,61,22,3,30.14,30.03,0,0,0,0.00
2013-9-16,68,56,47,45,-7,-26,55,13,3,30.22,29.99,0,0,0,0.02
2013-9-17,65,50,38,48,8,-36,62,29,3,30.39,30.21,0,0,0,0.00
2013-9-18,76,56,43,55,4,-33,60,23,3,30.31,30.12,0,0,0,0.00
2013-9-19,82,61,48,62,4,-29,59,20,3,30.12,30.00,0,0,0,0.00
2013-9-20,84,64,50,65,7,-28,59,21,3,30.06,29.96,0,0,0,0.00
2013-9-21,74,64,53,53,-6,-26,51,9,3,30.00,29.69,0,0,0,0.00
2013-9-22,73,64,49,58,6,-29,60,20,3,29.80,29.58,0,0,0,0.54
2013-9-23,67,52,43,50,4,-33,61,26,3,29.98,29.80,0,0,0,0.00
2013-9-24,71,52,39,52,7,-36,60,27,3,29.98,29.79,0,0,0,0.00
2013-9-25,73,56,44,57,0,-32,59,20,3,29.95,29.84,0,0,0,0.00
2013-9-26,67,56,52,53,-2,-27,60,19,3,30.09,29.95,0,0,0,0.00
2013-9-27,65,57,50,40,-11,-28,40,9,3,30.23,30.09,0,0,0,0.00
2013-9-28,77,58,47,61,-1,-30,60,19,3,30.30,30.22,0,0,0,0.00
2013-9-29,68,54,44,53,-4,-32,61,20,3,30.24,30.09,0,0,0,0.00
2013-9-30,69,55,48,54,-6,-30,61,18,3,30.10,29.93,0,0,0,0.00
2013-10-1,77,61,48,59,5,-29,60,22,3,29.93,29.82,0,0,0,0.00
2013-10-2,79,64,54,63,6,-25,59,21,3,29.93,29.81,0,0,0,0.00
2013-10-3,78,61,52,58,12,-27,60,26,3,30.06,29.93,0,0,0,0.00
2013-10-4,61,56,52,-20,-24,-27,3,3,3,30.06,30.00,0,0,0,0.67
2013-10-5,67,61,57,-17,-20,-23,3,3,3,30.10,30.02,0,0,0,0.03
2013-10-6,60,57,55,-21,-23,-24,3,3,3,30.19,30.08,0,0,0,0.42
2013-10-7,74,64,56,-12,-18,-24,3,3,3,30.09,29.79,0,0,0,0.17
2013-10-8,65,55,45,50,6,-32,61,25,3,30.34,29.88,0,0,0,0.00
2013-10-9,63,50,44,48,-5,-32,59,20,3,30.44,30.33,0,0,0,0.00
2013-10-10,63,51,44,31,-23,-32,30,5,3,30.33,30.15,0,0,0,0.00
2013-10-11,70,57,51,51,-5,-28,50,13,3,30.14,30.05,0,0,0,0.00
2013-10-12,60,55,50,-21,-25,-28,3,3,3,30.35,30.11,0,0,0,0.00
2013-10-13,61,51,47,41,-22,-30,47,6,3,30.41,30.33,0,0,0,0.00
2013-10-14,65,50,36,49,-3,-38,62,23,3,30.37,30.22,0,0,0,0.00
2013-10-15,66,56,47,52,-3,-30,60,18,3,30.24,30.14,0,0,0,0.00
2013-10-16,60,54,48,7,-23,-30,12,3,3,30.14,29.89,0,0,0,0.00
2013-10-17,72,60,51,49,-10,-27,47,9,3,29.89,29.69,0,0,0,0.00
2013-10-18,68,59,44,53,9,-32,61,27,3,29.88,29.58,0,0,0,0.00
2013-10-19,66,52,40,49,9,-35,61,29,3,29.95,29.72,0,0,0,0.00
2013-10-20,63,52,40,44,11,-31,62,31,3,29.99,29.66,0,0,0,0.00
2013-10-21,68,51,38,47,10,-37,61,30,3,30.10,29.97,0,0,0,0.00
2013-10-22,67,52,42,52,-1,-34,60,21,3,29.97,29.68,0,0,0,0.00
2013-10-23,50,44,35,37,10,-38,63,35,3,29.77,29.56,0,0,0,0.00
2013-10-24,55,43,35,36,15,-39,63,41,3,29.87,29.62,0,0,0,0.00
2013-10-25,49,39,31,35,11,-42,63,41,3,30.14,29.86,0,0,0,0.00
2013-10-26,55,42,30,35,5,-42,63,33,3,30.14,29.84,0,0,0,0.00
2013-10-27,57,46,35,40,14,-36,63,39,3,30.04,29.78,0,0,0,0.00
2013-10-28,61,43,30,40,8,-42,64,35,3,30.32,30.04,0,0,0,0.00
2013-10-29,51,38,30,31,21,-5,64,52,21,30.42,30.32,0,0,0,0.00
2013-10-30,54,41,31,41,-10,-41,61,20,3,30.34,30.17,0,0,0,0.00
2013-10-31,62,49,34,-20,-29,-39,3,3,3,30.21,29.77,0,0,0,0.00
2013-11-1,67,62,56,39,-14,-24,37,6,3,29.77,29.44,0,0,0,0.08
2013-11-2,67,55,44,49,6,-32,62,26,3,29.69,29.55,0,0,0,0.00
2013-11-3,50,41,31,33,12,-32,63,39,3,30.39,29.69,0,0,0,0.00
2013-11-4,43,33,26,22,18,4,66,55,38,30.68,30.39,0,0,0,0.00
2013-11-5,50,37,24,34,6,-46,64,37,3,30.69,30.49,0,0,0,0.00
2013-11-6,60,48,36,46,-3,-38,62,23,3,30.50,30.02,0,0,0,0.00
2013-11-7,64,53,38,27,-19,-33,34,6,3,30.03,29.64,0,0,0,0.24
2013-11-8,48,38,28,36,17,-43,65,48,3,30.08,29.79,0,0,0,0.00
2013-11-9,45,36,27,29,15,-44,64,45,3,30.19,30.00,0,0,0,0.00
2013-11-10,56,45,39,42,13,-35,63,41,3,30.00,29.72,0,0,0,0.00
2013-11-11,52,44,36,33,30,23,64,56,44,30.08,29.84,0,0,0,0.00
2013-11-12,45,36,25,33,-1,-42,67,37,3,30.17,29.86,0,0,0,0.00
2013-11-13,37,28,22,21,15,9,67,59,46,30.28,30.15,0,0,0,0.00
2013-11-14,51,37,26,29,23,16,66,56,39,30.15,30.03,0,0,0,0.00
2013-11-15,60,44,32,34,24,13,64,48,25,30.17,30.09,0,0,0,0.00
2013-11-16,60,45,37,41,22,-37,63,44,3,30.29,30.16,0,0,0,0.00
2013-11-17,57,47,34,24,-24,-39,29,6,3,30.28,29.81,0,0,0,0.00
2013-11-18,65,57,46,50,16,-23,63,34,3,29.80,29.51,0,0,0,0.31
2013-11-19,46,39,30,34,25,20,65,58,46,30.25,29.62,0,0,0,0.00
2013-11-20,42,31,24,20,17,12,67,57,34,30.60,30.25,0,0,0,0.00
2013-11-21,47,34,21,28,18,-15,66,51,18,30.61,30.36,0,0,0,0.00
2013-11-22,49,44,39,20,-23,-35,45,9,3,30.36,29.80,0,0,0,0.00
2013-11-23,47,39,28,32,15,-33,69,48,3,29.88,29.76,0,0,0,0.00
2013-11-24,28,23,19,18,8,-1,69,52,31,30.18,29.78,0,0,0,0.00
2013-11-25,33,24,15,20,8,0,65,50,27,30.35,30.18,0,0,0,0.00
2013-11-26,40,35,30,26,11,-39,65,48,3,30.30,30.00,0,0,0,0.03
2013-11-27,62,50,35,-20,-28,-39,3,3,3,30.00,29.19,0,0,0,0.10
2013-11-28,35,29,21,22,12,-39,68,54,3,30.41,29.45,0,0,0,0.00
2013-11-29,35,26,20,19,14,5,69,59,47,30.72,30.41,0,0,0,0.00
2013-11-30,33,24,14,20,12,3,69,60,38,30.76,30.40,0,0,0,0.00
2013-12-1,37,33,28,12,-28,-43,50,11,3,30.40,29.99,0,0,0,0.02
2013-12-2,40,37,34,-35,-37,-39,3,3,3,29.99,29.89,0,0,0,0.01
2013-12-3,49,38,30,38,-16,-42,65,20,3,29.93,29.81,0,0,0,0.00
2013-12-4,45,34,27,34,-11,-44,66,27,3,30.17,29.93,0,0,0,0.00
2013-12-5,55,42,29,-25,-34,-43,3,3,3,30.18,29.88,0,0,0,0.00
2013-12-6,56,48,34,27,-15,-39,47,11,3,30.09,29.83,0,0,0,0.04
2013-12-7,38,32,24,28,-12,-46,68,27,3,30.43,30.04,0,0,0,0.00
2013-12-8,30,27,20,21,16,-8,70,62,27,30.57,30.42,0,0,0,0.00
2013-12-9,36,31,25,19,-31,-46,69,11,3,30.47,29.86,0,0,0,0.00
2013-12-10,33,29,20,-40,-43,-49,3,3,3,29.98,29.76,0,0,0,0.00
2013-12-11,30,22,16,17,-20,-52,62,26,3,30.20,29.99,0,0,0,0.00
2013-12-12,26,18,9,14,3,-17,74,54,19,30.26,30.05,0,0,0,0.00
2013-12-13,29,20,10,19,11,0,73,68,60,30.35,29.98,0,0,0,0.00
2013-12-14,21,14,11,12,-1,-50,77,57,3,30.57,30.11,0,0,0,0.00
2013-12-15,34,26,18,-10,-41,-51,21,4,3,30.10,29.41,0,0,0,0.65
2013-12-16,30,21,12,19,-9,-52,73,44,3,30.18,29.73,0,0,0,0.00
2013-12-17,17,11,2,5,-11,-52,71,45,3,30.25,29.93,0,0,0,0.00
2013-12-18,34,23,15,24,-16,-52,70,29,3,30.07,29.85,0,0,0,0.01
2013-12-19,43,30,17,30,-1,-51,70,38,3,30.10,29.94,0,0,0,0.00
2013-12-20,53,40,29,38,12,-42,67,42,3,30.09,29.89,0,0,0,0.00
2013-12-21,56,47,38,42,4,-36,59,28,3,29.95,29.84,0,0,0,0.00
2013-12-22,64,50,37,49,-25,-37,65,6,3,29.99,29.73,0,0,0,0.00
2013-12-23,39,35,33,-36,-38,-40,3,3,3,30.06,29.93,0,0,0,0.10
2013-12-24,38,32,25,25,4,-41,72,48,3,30.18,30.02,0,0,0,0.00
2013-12-25,25,19,15,15,8,5,74,62,48,30.52,30.17,0,0,0,0.00
2013-12-26,21,20,15,13,12,8,74,69,68,30.48,30.07,0,0,0,0.00
2013-12-27,34,26,17,25,12,-51,71,62,3,30.27,30.18,0,0,0,0.01
2013-12-28,46,34,27,32,23,-13,71,63,16,30.20,29.98,0,0,0,0.01
2013-12-29,34,33,32,24,-11,-31,66,28,5,30.01,29.38,0,0,0,0.01
2013-12-30,37,32,26,28,-6,-41,70,34,3,30.13,29.50,0,0,0,0.00
2013-12-31,26,23,14,16,13,3,71,65,53,30.17,29.99,0,0,0,0.00
2014-1-1,28,22,14,15,12,6,72,65,51,30.35,30.17,0,0,0,0.00
2014-1-2,21,14,2,11,2,-9,67,58,36,30.32,29.80,0,0,0,0.00